Content
SEND FEEDBACK

Daily
Averages
Monthly
Summary
United States of America

TELLURIDE, COLORADO


Home > North America > United States > Colorado
Elevation: 9813 feet     Latitude: 37 57N     Longitude: 107 49W

WEATHER
 
SELECT A DAY
Number of Records: 299,879;   Date Range: 1/1/95 - 9/3/14
 
SHARE

PRINT THIS DATA

[ ← Previous Day ]
WEATHER ALMANAC - MARCH 29, 2014
[ Next Day → ]
[ °C ]   °F
Weather ElementAverageHighLow
Temperature36.9 °F48.2 °F (2:37 pm)21.2 °F (7:17 am)
Dewpoint9.5 °F14 °F (1:19 am)6.8 °F (8:57 am)
Humidity35.8 %64 % (1:19 am)20 % (2:37 pm)
Barometer30.25 in30.31 in (12:37 am)30.16 in (11:57 pm)
Wind Speed6 mph15 mph (4:37 pm)
Wind Gust20.7 mph (2:57 pm)
Weather ElementAverage
Visibility10 mi
Wind DirectionESE (116.5 °)

Weather ElementTotal
Precipitation---
Heating Degree Days30.3 (Base 65)
Averaged from 62 records on March 29, 2014
WEATHER CONDITIONS BREAKOUT
WIND DIRECTION BREAKOUT
WEATHER BY HOUR - MARCH 29, 2014
[ °C ]   °F
Local TimeTemperatureDewpointHumidityBarometerVisibilityWind DirectionWind SpeedGust SpeedPrecipitationEventsConditions
12:37 AM24.8 °F12.2 °F59 %30.31 in10.0 miSE (130°)3.5 mphClear
12:57 AM26.6 °F12.2 °F55 %30.31 in10.0 miCalmClear
1:19 AM24.8 °F14.0 °F64 %30.30 in10.0 miSE (130°)10.4 mphClear
1:37 AM24.8 °F12.2 °F59 %30.31 in10.0 miESE (120°)8.1 mphClear
2:19 AM23.0 °F12.2 °F63 %30.29 in10.0 miESE (120°)9.2 mphClear
2:37 AM24.8 °F12.2 °F59 %30.29 in10.0 miSE (130°)8.1 mphClear
2:57 AM24.8 °F12.2 °F59 %30.29 in10.0 miSE (140°)5.8 mphClear
3:17 AM24.8 °F12.2 °F59 %30.27 in10.0 miSE (140°)8.1 mphClear
3:37 AM24.8 °F12.2 °F59 %30.27 in10.0 miSE (130°)6.9 mphClear
3:57 AM23.0 °F12.2 °F63 %30.27 in10.0 miEast (100°)4.6 mphClear
4:17 AM23.0 °F12.2 °F63 %30.27 in10.0 miESE (120°)6.9 mphClear
4:39 AM24.8 °F12.2 °F59 %30.27 in10.0 miESE (120°)6.9 mphClear
4:57 AM23.0 °F12.2 °F63 %30.28 in10.0 miESE (120°)6.9 mphClear
5:17 AM23.0 °F10.4 °F59 %30.29 in10.0 miSE (130°)6.9 mphClear
6:17 AM23.0 °F10.4 °F59 %30.29 in10.0 miEast (100°)4.6 mphClear
6:39 AM24.8 °F8.6 °F50 %30.29 in10.0 miSE (130°)5.8 mphClear
6:57 AM24.8 °F8.6 °F50 %30.29 in10.0 miSE (130°)5.8 mphClear
7:17 AM21.2 °F8.6 °F58 %30.30 in10.0 miSE (140°)8.1 mphClear
7:37 AM24.8 °F8.6 °F50 %30.31 in10.0 miSE (140°)5.8 mphClear
8:17 AM26.6 °F10.4 °F51 %30.31 in10.0 miSE (130°)6.9 mphClear
8:37 AM28.4 °F8.6 °F43 %30.31 in10.0 miESE (120°)3.5 mphClear
8:57 AM30.2 °F6.8 °F37 %30.31 in10.0 miCalmClear
9:19 AM33.8 °F8.6 °F35 %30.31 in10.0 miCalmClear
9:39 AM35.6 °F8.6 °F33 %30.31 in10.0 miCalmClear
9:57 AM37.4 °F8.6 °F30 %30.31 in10.0 miCalmClear
10:19 AM39.2 °F6.8 °F26 %30.30 in10.0 miCalmClear
10:38 AM39.2 °F6.8 °F26 %30.30 in10.0 miCalmClear
10:57 AM41.0 °F6.8 °F24 %30.30 in10.0 miCalmClear
11:19 AM42.8 °F8.6 °F25 %30.29 in10.0 miCalmClear
11:37 AM42.8 °F6.8 °F23 %30.29 in10.0 miCalmClear
11:57 AM44.6 °F6.8 °F21 %30.29 in10.0 miEast (100°)4.6 mphClear
12:39 PM44.6 °F6.8 °F21 %30.27 in10.0 miCalmClear
12:57 PM44.6 °F8.6 °F23 %30.26 in10.0 miCalmClear
1:17 PM44.6 °F8.6 °F23 %30.24 in10.0 miEast (100°)4.6 mphClear
1:37 PM46.4 °F8.6 °F22 %30.24 in10.0 miSouth (190°)4.6 mphClear
1:57 PM46.4 °F8.6 °F22 %30.23 in10.0 miWest (280°)3.5 mphClear
2:18 PM46.4 °F10.4 °F23 %30.22 in10.0 miWSW (240°)11.5 mphClear
2:37 PM48.2 °F8.6 °F20 %30.22 in10.0 miWest (260°)13.8 mph19.6 mphClear
2:57 PM46.4 °F8.6 °F22 %30.21 in10.0 miWest (270°)11.5 mph20.7 mphClear
3:59 PM46.4 °F10.4 °F23 %30.20 in10.0 miSouth (190°)10.4 mph16.1 mphClear
4:19 PM46.4 °F6.8 °F20 %30.20 in10.0 miSW (230°)12.7 mph19.6 mphClear
4:37 PM46.4 °F8.6 °F22 %30.19 in10.0 miWSW (250°)15.0 mph18.4 mphClear
4:57 PM46.4 °F8.6 °F22 %30.18 in10.0 miSSW (210°)6.9 mphClear
5:17 PM46.4 °F8.6 °F22 %30.19 in10.0 miSW (220°)4.6 mph16.1 mphClear
5:37 PM46.4 °F6.8 °F20 %30.19 in10.0 miSW (230°)9.2 mph18.4 mphClear
5:57 PM46.4 °F6.8 °F20 %30.17 in10.0 miSouth (190°)10.4 mphClear
6:17 PM46.4 °F6.8 °F20 %30.18 in10.0 miSouth (190°)4.6 mphClear
6:37 PM46.4 °F6.8 °F20 %30.18 in10.0 miSouth (180°)8.1 mphClear
6:59 PM44.6 °F6.8 °F21 %30.18 in10.0 miCalmClear
7:17 PM44.6 °F8.6 °F23 %30.18 in10.0 miCalmClear
7:37 PM44.6 °F8.6 °F23 %30.18 in10.0 miCalmClear
7:59 PM42.8 °F10.4 °F27 %30.18 in10.0 miSE (130°)6.9 mphClear
8:19 PM42.8 °F8.6 °F25 %30.18 in10.0 miSSE (150°)6.9 mphClear
8:37 PM42.8 °F12.2 °F29 %30.18 in10.0 miEast (80°)3.5 mphClear
8:57 PM42.8 °F8.6 °F25 %30.18 in10.0 miSSE (150°)10.4 mphClear
9:17 PM42.8 °F8.6 °F25 %30.19 in10.0 miSE (130°)9.2 mphClear
9:57 PM42.8 °F10.4 °F27 %30.18 in10.0 miESE (120°)15.0 mph18.4 mphClear
10:17 PM42.8 °F12.2 °F29 %30.18 in10.0 miESE (120°)9.2 mphClear
10:39 PM42.8 °F12.2 °F29 %30.18 in10.0 miESE (120°)11.5 mphClear
10:57 PM42.8 °F10.4 °F27 %30.18 in10.0 miSE (140°)8.1 mphClear
11:17 PM42.8 °F12.2 °F29 %30.17 in10.0 miESE (110°)9.2 mphClear
11:57 PM42.8 °F12.2 °F29 %30.16 in10.0 miESE (120°)11.5 mphClear
Hourly data recorded from KTEX, located miles away from Telluride, Colorado







STORIES FROM OUR PARTNERS